Tracking 18840 objects as of 18-November-2017
HD Live streaming from Space Station
objects crossing your sky now

COSMOS 1650 (GLONASS)

Track COSMOS 1650 (GLONASS) now!
COSMOS 1650 (GLONASS) is classified as:


NORAD ID: 15697
Int'l Code: 1985-037A
Perigee: 19,056.4 km
Apogee: 19,217.6 km
Inclination: 64.1 °
Period: 675.7 minutes
Semi major axis: 25507 km
RCS: 1.9242 m2 (large)
Launch date: May 17, 1985
Source: Commonwealth of Independent States (former USSR) (CIS)
Launch site: TYURATAM MISSILE AND SPACE COMPLEX (TTMTR)
SV:
aabbcc
Your satellite tracking list
Your tracking list is empty




NASA's NSSDC Master Catalog

Two Line Element Set (TLE):
1 15697U 85037A   17321.06517278 +.00000079 +00000-0 +00000-0 0  9997
2 15697 064.1065 180.9445 0031593 011.6859 266.2767 02.13102439229503
Source of the keplerian elements: AFSPC